Time,TemperatureF,DewpointF,PressureIn,WindDirection,WindDirectionDegrees,WindSpeedMPH,WindSpeedGustMPH,Humidity,HourlyPrecipIn,Conditions,Clouds,dailyrainin,SoftwareType,DateUTC
2013-06-09 00:00:00,55.5,55.5,20.00,WNW,292,0.0,5.0,100,0.00,,---,0.00,VWS V13.00,2013-06-09 04:00:00,
2013-06-09 00:30:00,55.2,55.2,19.99,WNW,292,0.0,5.0,100,0.00,,---,0.00,VWS V13.00,2013-06-09 04:30:00,
2013-06-09 01:00:00,54.3,54.3,19.99,WNW,292,1.0,6.0,100,0.00,,---,0.00,VWS V13.00,2013-06-09 05:00:00,
2013-06-09 01:30:00,53.9,53.9,19.99,WNW,292,2.0,5.0,100,0.00,,---,0.00,VWS V13.00,2013-06-09 05:30:00,
2013-06-09 02:00:00,54.7,54.7,19.99,WNW,291,2.0,5.0,100,0.00,,---,0.00,VWS V13.00,2013-06-09 06:00:00,
2013-06-09 02:30:00,54.9,54.9,19.99,WNW,291,1.0,3.0,100,0.00,,---,0.00,VWS V13.00,2013-06-09 06:30:00,
2013-06-09 03:00:00,55.1,55.1,20.00,WNW,291,6.0,6.0,100,0.00,,---,0.00,VWS V13.00,2013-06-09 07:00:00,
2013-06-09 03:30:00,55.0,55.0,20.00,WNW,291,0.0,9.0,100,0.00,,---,0.00,VWS V13.00,2013-06-09 07:30:00,
2013-06-09 04:00:00,54.8,54.8,19.99,West,274,4.0,7.0,100,0.00,,---,0.00,VWS V13.00,2013-06-09 08:00:00,
2013-06-09 05:30:00,54.2,54.2,19.99,WNW,296,0.0,10.0,100,0.00,,---,0.00,VWS V13.00,2013-06-09 09:30:00,
2013-06-09 06:00:00,54.7,54.7,19.99,West,271,5.0,9.0,100,0.00,,---,0.00,VWS V13.00,2013-06-09 10:00:00,
2013-06-09 06:30:00,55.4,55.4,20.00,West,277,5.0,9.0,100,0.00,,---,0.00,VWS V13.00,2013-06-09 10:30:00,
2013-06-09 07:00:00,56.4,56.4,19.99,West,275,3.0,9.0,100,0.00,,---,0.00,VWS V13.00,2013-06-09 11:00:00,
2013-06-09 07:30:00,57.6,57.6,19.99,West,270,5.0,17.0,100,0.00,,---,0.00,VWS V13.00,2013-06-09 11:30:00,
2013-06-09 08:00:00,57.5,57.5,19.99,WNW,300,3.0,15.0,100,0.00,,---,0.00,VWS V13.00,2013-06-09 12:00:00,
2013-06-09 08:30:00,59.1,59.1,19.99,NW,311,3.0,9.0,100,0.00,,---,0.00,VWS V13.00,2013-06-09 12:30:00,
2013-06-09 09:00:00,60.2,60.2,19.99,WNW,290,3.0,13.0,100,0.00,,---,0.00,VWS V13.00,2013-06-09 13:00:00,
2013-06-09 09:30:00,60.8,60.8,19.99,WNW,296,7.0,16.0,100,0.00,,---,0.00,VWS V13.00,2013-06-09 13:30:00,
2013-06-09 10:00:00,62.2,62.2,19.99,SSW,212,9.0,14.0,100,0.00,,---,0.00,VWS V13.00,2013-06-09 14:00:00,
2013-06-09 10:30:00,62.5,62.5,19.99,WNW,294,4.0,14.0,100,0.00,,---,0.00,VWS V13.00,2013-06-09 14:30:00,
2013-06-09 11:00:00,62.9,62.9,20.00,WSW,258,4.0,17.0,100,0.00,,---,0.00,VWS V13.00,2013-06-09 15:00:00,
2013-06-09 11:30:00,62.6,62.6,19.99,WSW,252,13.0,15.0,100,0.00,,---,0.00,VWS V13.00,2013-06-09 15:30:00,
2013-06-09 12:00:00,63.2,63.2,19.99,WNW,298,1.0,14.0,100,0.00,,---,0.00,VWS V13.00,2013-06-09 16:00:00,
2013-06-09 12:30:00,64.0,64.0,19.99,WNW,300,3.0,14.0,100,0.00,,---,0.00,VWS V13.00,2013-06-09 16:30:00,
2013-06-09 13:00:00,65.7,65.7,19.99,West,260,9.0,17.0,100,0.00,,---,0.00,VWS V13.00,2013-06-09 17:00:00,
2013-06-09 13:30:00,65.4,65.4,19.99,NW,315,5.0,13.0,100,0.00,,---,0.00,VWS V13.00,2013-06-09 17:30:00,
2013-06-09 14:00:00,64.7,64.7,19.99,WNW,303,7.0,12.0,100,0.00,,---,0.00,VWS V13.00,2013-06-09 18:00:00,
2013-06-09 14:30:00,67.6,67.6,19.99,West,271,12.0,17.0,100,0.00,,---,0.00,VWS V13.00,2013-06-09 18:30:00,
2013-06-09 15:00:00,67.6,67.6,19.99,WNW,290,1.0,17.0,100,0.00,,---,0.00,VWS V13.00,2013-06-09 19:00:00,
2013-06-09 15:30:00,66.2,66.2,19.99,West,266,6.0,17.0,100,0.00,,---,0.00,VWS V13.00,2013-06-09 19:30:00,
2013-06-09 16:00:00,68.5,68.5,19.99,West,266,2.0,12.0,100,0.00,,---,0.00,VWS V13.00,2013-06-09 20:00:00,
2013-06-09 16:30:00,68.1,68.1,19.99,West,275,5.0,14.0,100,0.00,,---,0.00,VWS V13.00,2013-06-09 20:30:00,
2013-06-09 17:00:00,68.6,68.6,19.99,NNW,339,5.0,11.0,100,0.00,,---,0.00,VWS V13.00,2013-06-09 21:00:00,
2013-06-09 17:30:00,68.3,68.3,20.00,West,273,4.0,17.0,100,0.00,,---,0.00,VWS V13.00,2013-06-09 21:30:00,
2013-06-09 18:00:00,67.8,67.8,19.99,West,270,4.0,12.0,100,0.00,,---,0.00,VWS V13.00,2013-06-09 22:00:00,
2013-06-09 18:30:00,66.8,66.8,19.99,NW,321,0.0,11.0,100,0.00,,---,0.00,VWS V13.00,2013-06-09 22:30:00,
2013-06-09 19:00:00,66.2,66.2,19.99,WNW,290,3.0,11.0,100,0.00,,---,0.00,VWS V13.00,2013-06-09 23:00:00,
2013-06-09 19:30:00,65.1,65.1,20.00,WNW,294,0.0,9.0,100,0.00,,---,0.00,VWS V13.00,2013-06-09 23:30:00,
2013-06-09 20:00:00,63.4,63.4,19.99,WNW,294,0.0,3.0,100,0.00,,---,0.00,VWS V13.00,2013-06-10 00:00:00,
2013-06-09 20:30:00,61.7,61.7,19.99,WNW,294,1.0,4.0,100,0.00,,---,0.00,VWS V13.00,2013-06-10 00:30:00,
2013-06-09 21:00:00,60.6,60.6,19.99,WNW,296,0.0,5.0,100,0.00,,---,0.00,VWS V13.00,2013-06-10 01:00:00,
2013-06-09 21:30:00,60.1,60.1,19.99,WNW,296,1.0,4.0,100,0.00,,---,0.00,VWS V13.00,2013-06-10 01:30:00,
2013-06-09 22:00:00,59.4,59.4,19.99,WNW,296,0.0,4.0,100,0.00,,---,0.00,VWS V13.00,2013-06-10 02:00:00,
2013-06-09 22:30:00,58.4,58.4,19.99,WNW,296,3.0,5.0,100,0.00,,---,0.00,VWS V13.00,2013-06-10 02:30:00,
2013-06-09 23:00:00,58.8,58.8,19.99,WNW,296,3.0,5.0,100,0.00,,---,0.00,VWS V13.00,2013-06-10 03:00:00,
2013-06-09 23:30:00,57.9,57.9,19.99,WNW,296,3.0,5.0,100,0.00,,---,0.00,VWS V13.00,2013-06-10 03:30:00,